Location: Unspecified
(40.7945°N, 111.1337°W)
Time: 22:15:46
(UTC-06:00)

Vanguard 1 - Pass Details

Date: 30 June 2019
Orbit: 653 x 3830 km, 34.3° (Epoch: 20 July)

Event Time Altitude Azimuth Distance (km) Brightness Sun altitude
Rises 09:15:59 0° 276° (W) 5,725 13.5 34.9°
Reaches altitude 10° 09:24:07 10° 246° (WSW) 3,760 12.7 36.5°
Maximum altitude 09:26:07 11° 234° (SW) 3,454 12.6 36.8°
Drops below altitude 10° 09:27:56 10° 221° (SW) 3,299 12.5 37.2°
Sets 09:33:10 0° 184° (S) 3,656 13.0 38.2°
